ATLAS 5 CENTAUR DEB, 55855

Orbit data source: Space-Track

ATLAS 5 CENTAUR DEB, 55855 is space debris in HEO originally from a launch on Wed, 17 Oct 2018 UTC launched from the Air Force Eastern Test Range (AFETR). Debris objects in space refer to the collection of defunct objects orbiting the Earth. Examples of debris include non-operational satellites, rocket bodies, and fragments generated from explosions, collisions, or faulty payload assembly.

Loading next visibility...
Identifier
55855, 2018-079HH
Orbit
HEO
Country
Flag of USUS
Related business
Flag of USUnited Launch Alliance/Lockheed Martin (US)
Manufacturer
ULA Decatur
Mission
Spacecraft
Bus & Motor
Unknown
Mass
Unknown
Launch date (UTC)
2018-10-17 (8 years ago)
Launch vehicle
Unknown
Launch site
Air Force Eastern Test Range (AFETR)
Object type
Payload
Rocket body
Debris
Shape & HBR
Unknown shape, 1.1 m
Radar Cross Section
RCS unknown

Expand to show TLE details & history
Last TLE update: 2 weeks ago

TLE from 2 weeks ago
0 ATLAS 5 CENTAUR DEB
1 55855U 18079HH  26239.34100164 -.00000138  00000-0  00000-0 0  9997
2 55855  13.4053   9.4322 4631880  11.9377 355.9625  1.90885264 19439
Epoch: 2026-08-27T08:11Z
TLE epoch observation values (Epoch: 2026-08-27T08:11:02.541Z)
Latitude
0.00001°
Longitude
-88.89093°
Altitude
8,461.948 km
Speed
6.261 km/s
True Right ascension
00h 37m 48s
True Declination
0° 00' 00"
Sunlit
Object was in daylight at epoch
Visualization orbit readout
Latitude
Unknown
Longitude
Unknown
Altitude
Unknown
Speed
Unknown
Apparent Right ascension
Unknown
Apparent Declination
Unknown
Sunlit
N/A
Visualization observer readout
Local Sidereal Time
05:36:17
Azimuth
Unknown
Elevation
Unknown
Doppler factor
Unknown
Orbital elements
Apogee altitude
33,790.537 km
Perigee altitude
8,358.88 km
Semi-major axis
27,452.845 km
Eccentricity
0.46319
Inclination
13.4053°
RAAN
9.4322°
Arg. of periapsis
11.9377°
True anomaly
347.64354°
Mean anomaly
355.9625°
Eccentric anomaly
352.49723°
Mean motion
0.47716 °/min
Orbital period
754.47 mins
BSTAR
0
Loading maneuver chart data...
Computing Atmospheric mass density...

Documentation

Showing up to 5 results
|